Reflectivity
-20 33 -19 21 31 -20 -0 -10 5 -20 10 -20 -20 -19 -20 -20 -20 -20 16 13 1 -13 -20 3 -13 15 16 1 -20 -20 -20 -20 12
-20 19 14 -10 20 2 -16 -13 4 -20 -20 -11 -6 -6 -19 -20 -20 -8 9 -13 -5 -20 -20 1 9 20 -17 -20 -20 -14 -17 -19 14
31 30 28 27 30 26 12 28 13 24 25 -10 -20 -20 -20 -20 -20 -6 -20 3 -3 -20 -3 5 13 4 -20 -20 4 -13 -11 -20 10
6 19 22 25 28 23 20 30 31 22 21 16 -4 -19 -20 -3 -20 -20 -20 -1 -6 -10 0 2 -20 -19 -20 -5 7 7 -1 -20 -20
12 30 29 33 25 25 18 27 25 31 30 31 -19 8 12 10 10 -20 -20 12 0 -6 -4 -10 -6 -2 1 2 1 12 14 11 12
32 33 38 38 33 20 27 26 33 33 35 31 -7 3 2 10 -4 -12 -8 24 20 22 0 14 5 5 -10 4 3 6 4 5 -9
22 43 43 42 32 26 28 26 25 34 28 29 8 -12 -20 -20 14 -20 27 25 19 18 21 13 -1 11 -8 8 -1 13 10 2 -9
4 14 40 39 36 35 32 34 24 25 31 29 32 2 -20 -20 28 19 32 26 27 24 10 -19 4 13 23 21 20 17 9 20 12
-10 -3 23 40 44 41 36 31 33 33 32 31 32 -0 -20 -20 -20 25 33 3 28 6 23 24 19 18 22 18 18 19 14 16 10
-2 -4 16 36 37 32 36 36 38 36 35 35 34 -3 0 -6 -20 -20 26 2 27 25 25 24 25 17 13 7 1 12 16 16 12
-20 3 14 25 22 25 19 16 15 29 33 28 32 27 15 1 -17 -10 26 27 27 25 24 19 11 9 4 2 11 7 11 11 16
-20 -18 5 23 14 14 10 -0 16 -1 15 31 25 21 9 21 23 10 13 27 24 25 11 2 -19 1 9 10 4 4 4 4 -0
-20 -19 -10 10 13 10 12 6 8 9 14 20 25 28 -1 -5 23 0 19 27 28 23 6 20 6 7 13 13 13 10 3 -9 -15
-20 -20 -15 -18 12 3 0 7 3 -5 1 3 2 23 18 19 22 22 10 28 33 39 31 12 10 15 11 10 6 1 11 14 8
22 -20 -18 -19 -20 -15 -2 4 -4 -17 -11 -20 -2 19 6 29 27 28 27 16 5 28 30 10 -8 8 1 -20 -15 -20 -20 -20 -20
-3 -20 20 19 -3 -17 -3 -20 3 -3 -8 -14 14 23 5 3 22 19 -14 6 -6 -16 -20 -20 -20 -20 -19 -20 -20 -20 -19 6 -10
10 21 24 17 13 17 5 -7 15 5 -20 9 -16 31 35 32 28 18 7 33 -1 -10 -17 -19 -20 -4 -12 -6 -12 -20 -20 -2 -6
22 41 33 18 -6 -17 -17 -20 -20 -5 10 -20 -20 -16 25 30 26 32 27 29 35 24 28 27 15 -3 9 6 5 -1 -3 -5 0
25 27 27 35 6 14 1 10 -11 -1 -20 15 -11 -8 20 24 32 23 24 28 28 17 29 1 5 23 28 4 -9 -12 2 3 -14
30 36 41 41 26 20 28 13 14 30 8 4 9 2 24 -8 10 6 28 21 31 31 28 -5 -9 -18 -20 -20 -20 -20 -20 -20 -20
Wind_Speed
16 16 17 18 19 17 18 18 19 19 18 18 19 18 16 9 11 7 11 7 19 20 19 19 19 20 23 23 22 21 21 19 21
16 16 16 17 20 19 19 19 19 17 17 17 14 12 9 8 9 8 7 12 20 21 21 20 19 22 24 23 22 22 21 20 21
15 14 16 19 20 20 18 18 17 15 14 12 9 9 8 9 11 9 7 17 20 22 21 21 21 23 23 23 22 23 22 21 20
11 13 18 22 23 21 18 17 18 15 13 9 9 9 15 8 10 9 6 17 21 22 21 21 21 22 22 22 22 22 22 22 21
8 15 21 22 23 22 19 16 15 12 10 11 10 13 15 9 10 7 6 19 22 23 22 21 22 21 21 20 20 21 22 21 22
9 4 20 22 24 23 23 21 16 10 8 10 13 11 5 7 6 5 16 20 21 21 21 21 20 20 20 19 18 19 20 20 21
8 6 10 8 17 20 21 22 20 11 1 3 9 6 7 4 5 5 18 20 23 23 22 21 21 20 19 19 18 18 19 20 19
4 5 6 4 10 7 14 12 7 9 5 5 4 8 7 4 2 6 18 21 23 24 24 23 23 23 24 24 24 25 23 21 22
3 7 9 6 8 9 10 8 9 10 9 7 8 10 7 4 3 3 14 19 23 25 26 25 26 26 26 26 25 26 26 26 25
6 8 6 8 7 8 8 10 9 9 10 10 8 10 8 9 4 3 10 19 23 26 27 27 27 27 27 26 25 25 25 24 24
8 7 8 8 8 8 9 6 9 9 10 10 9 9 9 9 9 5 6 17 23 26 28 28 28 27 27 26 24 24 24 24 23
10 9 7 9 8 12 9 11 8 10 9 12 9 8 9 8 10 7 7 7 17 23 26 26 26 25 25 24 23 23 22 22 22
10 8 8 8 9 9 8 8 9 9 10 9 7 7 8 10 10 9 7 7 7 15 21 23 23 22 22 22 22 22 21 21 21
11 8 8 10 8 8 9 8 9 10 10 10 9 8 7 9 8 9 9 8 7 6 16 19 19 21 22 22 21 21 20 19 19
11 9 10 9 10 9 9 12 8 10 12 12 12 7 8 8 7 8 7 9 9 8 8 6 10 18 20 21 20 19 19 19 19
6 10 10 9 10 11 12 13 16 8 12 9 9 8 10 10 8 7 7 9 7 9 9 6 5 6 18 19 19 18 19 19 18
6 2 10 11 11 13 14 16 10 6 6 7 4 3 5 5 7 5 7 6 8 7 8 9 8 7 5 9 17 17 17 16 16
11 6 3 9 10 12 15 15 15 12 5 7 7 6 5 3 4 5 4 4 4 3 6 7 7 9 7 8 10 14 15 16 15
10 12 6 2 5 8 10 12 10 14 12 5 1 3 7 8 4 1 1 2 1 4 3 5 5 8 5 11 13 14 14 14 14
11 7 7 4 3 6 4 7 4 9 6 7 5 5 3 6 6 6 5 1 2 2 3 4 5 6 5 5 9 11 12 13 13
Wind_Direction
184 181 170 173 151 147 144 136 135 137 141 142 144 148 146 122 119 113 122 118 111 114 115 110 108 110 105 99 98 96 96 95 91
190 185 182 165 151 145 143 138 139 144 148 148 147 148 140 132 116 118 119 120 121 120 119 113 107 111 101 101 100 98 99 98 93
195 189 178 157 147 139 135 135 141 146 134 118 126 153 150 124 122 127 123 125 126 123 121 114 108 106 105 105 99 100 99 98 95
181 177 163 157 146 139 135 141 148 129 121 125 109 122 118 121 128 129 126 132 128 126 125 120 114 111 109 108 106 102 101 101 100
142 165 157 158 147 138 138 128 123 125 129 107 81 93 96 112 125 130 145 137 136 131 128 125 121 117 114 111 108 106 105 102 95
130 241 159 155 145 143 139 132 126 122 55 86 73 80 88 114 119 136 149 143 133 129 127 123 119 124 120 116 114 111 108 106 101
143 150 124 150 131 132 129 127 119 98 71 54 68 72 69 74 124 142 148 142 134 128 123 118 115 115 117 111 111 111 115 110 103
103 128 126 95 89 121 114 100 84 78 67 47 53 66 57 45 74 158 144 137 134 126 120 118 115 113 109 102 100 99 101 108 94
96 119 117 109 119 93 84 80 84 83 73 65 54 57 60 52 35 67 139 134 132 127 120 118 114 110 106 101 97 94 91 91 91
105 117 105 118 97 98 92 118 111 96 81 62 57 56 52 58 44 53 127 130 127 123 120 115 110 104 100 97 94 94 94 91 89
117 112 110 94 105 108 115 103 114 102 98 75 59 58 46 48 45 45 108 125 123 118 117 112 106 104 101 100 98 97 97 96 92
131 126 120 113 111 106 104 102 88 91 88 78 63 58 51 51 50 40 51 79 111 114 114 113 110 110 109 107 105 102 99 97 95
131 130 125 125 122 117 114 114 106 93 85 78 54 55 58 55 44 46 49 41 70 90 104 107 111 114 114 113 111 106 104 103 102
134 135 134 132 124 122 122 109 115 107 91 82 65 40 47 48 50 34 41 56 53 76 98 105 113 117 115 113 112 112 111 109 106
138 134 137 133 129 127 123 118 105 111 111 91 68 46 41 40 43 32 29 40 54 69 69 71 112 112 116 115 115 115 115 111 108
136 144 146 143 143 139 133 125 125 115 129 101 79 47 38 36 29 24 33 25 41 61 68 62 56 97 118 120 119 117 115 113 115
60 211 158 153 143 140 146 146 140 130 188 120 118 123 38 359 28 15 37 354 35 41 66 76 71 59 63 116 118 124 115 113 119
40 34 289 154 154 158 162 158 153 159 190 209 130 139 168 122 350 4 37 28 38 43 62 65 70 78 62 62 95 117 122 126 124
44 43 352 22 133 159 172 174 167 165 169 185 199 70 137 152 152 321 356 38 79 54 76 78 62 73 67 86 94 104 120 124 128
72 46 17 55 17 113 141 178 181 196 154 165 145 108 146 118 139 150 166 194 225 201 125 119 99 74 67 64 99 121 128 134 136